Location: Malvern Link
(52.1333°N, 2.3000°W)
Time: 09:37:08
(UTC+00:00)

NOAA 18 - Visible Passes

Search period start: 27 June 2022 00:00
Search period end: 07 July 2022 00:00
Orbit: 840 x 859 km, 98.9° (Epoch: 26 June)

Date Brightness Start Highest point End Pass type
(mag) Time Alt. Az. Time Alt. Az. Time Alt. Az.
27 Jun 5.5 21:46:04 10° S 21:51:34 71° WSW 21:57:08 10° NNW visible
27 Jun 7.5 23:30:47 10° WSW 23:33:16 13° W 23:35:45 10° WNW visible
28 Jun 5.3 21:33:59 10° SSE 21:39:30 86° WSW 21:45:06 10° NNW visible
28 Jun 7.4 23:17:39 10° SW 23:21:01 16° W 23:24:23 10° NW visible
29 Jun 5.3 21:21:57 10° SSE 21:27:28 79° ENE 21:33:02 10° NNW visible
29 Jun 7.2 23:04:49 10° SW 23:08:47 20° W 23:12:48 10° NW visible
30 Jun 7.0 22:52:09 10° SW 22:56:35 24° W 23:01:04 10° NW visible
01 Jul 6.7 22:39:37 10° SSW 22:44:24 30° W 22:49:15 10° NNW visible
02 Jul 6.4 22:27:11 10° SSW 22:32:15 36° W 22:37:22 10° NNW visible
03 Jul 6.1 22:14:51 10° S 22:20:07 44° W 22:25:26 10° NNW visible
04 Jul 5.8 22:02:36 10° S 22:08:00 54° W 22:13:28 10° NNW visible
05 Jul 5.5 21:50:25 10° S 21:55:55 67° WSW 22:01:28 10° NNW visible
05 Jul 7.6 23:35:33 10° WSW 23:37:39 12° W 23:39:47 10° WNW visible
06 Jul 5.3 21:38:19 10° SSE 21:43:50 81° WSW 21:49:27 10° NNW visible
06 Jul 7.5 23:22:16 10° WSW 23:25:24 15° W 23:28:34 10° NW visible
